189  
ASUS44 KFWD 101710  
RWRTX  
NORTH TEXAS HOURLY WEATHER ROUNDUP  
NATIONAL WEATHER SERVICE FORT WORTH TX  
1100 AM CST FRI NOV 10 2017  
 
NOTE: "FAIR" INDICATES FEW OR NO CLOUDS BELOW 12,000 FEET WITH NO  
SIGNIFICANT WEATHER AND/OR S TO VISIBILITY
.  
 
TXZ118-119-101800-  
DALLAS/FORT WORTH METROPLEX  
 
CITY SKY/WX TMP DP RH WIND PRES REMARKS
 
DFW AIRPORT MOSUNNY 60 45 57 S8 30.29S  
DALLAS LOVE MOSUNNY 59 46 62 SE9 30.30F  
FTW MEACHAM PTSUNNY 57 48 72 SE7 30.29F  
DAL-EXECUTIVE PTSUNNY 57 46 66 SE9 30.30S  
FTW-ALLIANCE PTSUNNY 57 46 66 SE6 30.29F  
FTW-NAS-JRB PTSUNNY 57 46 66 SE6 30.30F  
FTW-SPINKS PTSUNNY 55 46 71 SE6 30.31F  
ARLINGTON CLOUDY 55 47 74 SE8 30.30F  
GRAND PRAIRIE SUNNY 55 46 71 E5 30.32F  
ADDISON MOSUNNY 59 45 58 S9 30.30F  
MESQUITE SUNNY 59 45 58 SE7 30.31F  
LANCASTER MOSUNNY 57 47 70 E6 30.32S  

 
 
TXZ091>094-102>105-117-120-121-131>134-101800-  
NORTH CENTRAL TEXAS  
 
CITY SKY/WX TMP DP RH WIND PRES REMARKS
 
SHRMAN/DENISON SUNNY 59 43 56 E7 30.32F  
GAINESVILLE CLOUDY 56 43 62 SE6 30.32S  
BOWIE CLOUDY 51 47 87 SE6 30.29F  
BRIDGEPORT CLOUDY 52 48 88 E3 30.32S  
DECATUR CLOUDY N/A N/A N/A SE5 30.28  
DENTON MOSUNNY 55 46 71 SE7 30.30F  
MCKINNEY SUNNY 58 46 64 S14 30.31F  
BONHAM SUNNY 58 40 51 SE13 30.32F  
GREENVILLE SUNNY 63 39 42 SE10 30.32F  
ROCKWALL SUNNY 60 44 55 SE9 30.31F HAZE  
TERRELL SUNNY 60 41 49 SE9 30.31F  
WAXAHACHIE CLOUDY 56 47 71 SE7 30.32S  
CLEBURNE CLOUDY 55 50 82 S7 30.31F  
GRANBURY CLOUDY 55 48 76 SE8 30.31S  

 
 
TXZ083>090-098>101-113>116-127>130-139>142-154-155-101800-  
WESTERN NORTH TEXAS  
 
CITY SKY/WX TMP DP RH WIND PRES REMARKS
 
WICHITA FALLS CLOUDY 49 45 86 SE6 30.28S  
WF-KICKAPOO CLOUDY 49 46 88 SE5 30.31S  
VERNON CLOUDY 49 43 80 S9 30.28S  
ABILENE CLOUDY 51 50 96 SE8 30.25F  
ABILENE-DYESS CLOUDY 52 49 92 SE5 30.24S  
GRAHAM N/A 48 48 100 SE3 30.28S  
BRECKENRIDGE PTSUNNY 55 45 69 SE5 30.27S  
CISCO CLOUDY 50 46 87 SE10 30.27S  
EASTLAND CLOUDY 52 46 79 SE8 30.27F  
RANGER CLOUDY 52 46 82 S3 30.28S  
MINERAL WELLS CLOUDY 50 47 89 SE7 30.28S  
STEPHENVILLE CLOUDY 52 45 77 SE7 30.31S  
COMANCHE CLOUDY 50 50 100 SE8 30.29R  
BROWNWOOD CLOUDY 50 48 93 SE7 30.28S FOG  
COLEMAN CLOUDY 50 48 92 SE7 30.27S FOG  

 
 
TXZ143>147-156>162-174-175-101800-  
CENTRAL TEXAS  
 
CITY SKY/WX TMP DP RH WIND PRES REMARKS
 
WACO CLOUDY 55 47 74 VRB3 30.30F  
WACO-TSTC PTSUNNY 57 48 72 E5 30.30F  
WACO-MCGREGOR CLOUDY 54 47 77 VRB5 30.31S  
HILLSBORO CLOUDY 56 48 73 E7 30.29F  
CORSICANA PTSUNNY 58 45 62 SE9 30.32S  
MEXIA CLOUDY 57 46 67 SE6 30.29F  
HEARNE MOSUNNY 59 47 65 E8 30.30F  
CAMERON CLOUDY 58 48 69 SE6 30.29F  
TEMPLE CLOUDY 55 48 77 NE5 30.30F  
KILLEEN CLOUDY 54 48 82 E6 30.27F  
KILLEEN-SKYLRK CLOUDY 55 49 80 E8 30.29F  
FORT HOOD CLOUDY 53 48 83 E6 30.25F  
GATESVILLE CLOUDY 54 48 82 VRB5 30.30F  
HAMILTON CLOUDY 51 51 100 SE7 30.29F FOG  
LAMPASAS CLOUDY 53 50 90 SE7 30.27F  

 
 
TXZ095>097-106>112-122>126-135>138-148>153-164>167-101800-  
EAST TEXAS  
 
CITY SKY/WX TMP DP RH WIND PRES REMARKS
 
PARIS SUNNY 59 43 55 VRB6 30.34F  
SULPHUR SPRNGS SUNNY 60 39 46 SE10 30.34F  
MOUNT PLEASANT SUNNY 60 40 47 E7 30.34F  
GILMER SUNNY 58 37 45 E12 30.33S  
MINEOLA SUNNY 59 41 51 SE7 30.32F  
TYLER SUNNY 60 36 40 SE9 30.31F  
LONGVIEW SUNNY 61 41 48 E9 30.31  
MARSHALL SUNNY 58 36 43 E7 30.34F  
ATHENS SUNNY 57 36 44 S3 30.30F  
PALESTINE SUNNY 61 41 48 E7 30.32F  
JACKSONVILLE SUNNY 59 42 52 E7 30.32F  
HENDERSON SUNNY 60 40 46 SE8 30.32F  
CENTER SUNNY 60 38 44 E10G20 30.32F  
NACOGDOCHES SUNNY 62 42 47 SE8 30.31F  
LUFKIN SUNNY 62 45 53 VRB5 30.30F  

 
 
SUPPLEMENTAL OBSERVATIONS (NWS FORT WORTH AREA)  
 
CITY SKY/WX TMP DP RH WIND PRES REMARKS
 
CADDO GRASSLND N/A 61 45 55 S6 N/A  
PAT MAYSE LAKE N/A 57 41 54 E3 N/A  
GREENVILLE N/A 61 39 44 SE9 N/A  
CEDAR HILL N/A 57 45 62 SE6 N/A  
LBJ GRASSLAND N/A 54 46 76 E6 N/A  
POSSUM KINGDOM N/A 52 45 76 E7 N/A  
GRANBURY N/A 54 46 76 SE8 N/A  
MCGREGOR N/A 55 46 71 E5 N/A  
TEMPLE N/A 55 48 76 NE6 N/A  

 
 
SUPPLEMENTAL OBSERVATIONS (NWS NORMAN AREA)  
 
CITY SKY/WX TMP DP RH WIND PRES REMARKS
 
GOODLETT N/A 43 42 96 SE9 30.26S WCI 37  
ODELL N/A 46 45 96 SE13 30.28F  
CROWELL N/A 43 43 99 SE8 30.28F WCI 38  
KNOX CITY N/A 44 42 93 E2 30.28F  
SEYMOUR N/A 48 44 87 SE6 30.28F  
MILLERS CREEK N/A 48 45 87 S6 N/A  

 
 
SUPPLEMENTAL OBSERVATIONS (NWS SAN ANGELO AREA)  
 
CITY SKY/WX TMP DP RH WIND PRES REMARKS
 
WEINERT N/A 46 45 97 SE5 30.28S  
HASKELL N/A 46 45 97 S3 30.27S  
THROCKMORTON N/A 51 46 84 S5 30.28F  
STAMFORD N/A 48 46 95 SE7 30.27F  
CLYDE N/A 49 47 95 SE8 30.27R  
HAMBY N/A 54 48 82 SE3 N/A  
IVIE RESERVOIR N/A 50 48 93 E10 N/A  
COLORADO BEND N/A 54 50 87 E7 N/A  

 
 
SUPPLEMENTAL OBSERVATIONS (NWS SHREVEPORT AREA)  
 
CITY SKY/WX TMP DP RH WIND PRES REMARKS
 
CLARKSVILLE N/A 63 37 39 SE8 N/A  
TEXARKANA N/A 61 37 41 E6 N/A  
LINDEN N/A 63 39 42 E6G15 N/A  
GILMER N/A 61 37 41 E9 N/A  
HENDERSON N/A 61 39 44 E8 N/A  
LUFKIN N/A 63 45 51 MISG N/A  
N SABINE NF N/A 63 48 59 MISG N/A  
S SABINE NF N/A 63 43 48 NE5 N/A  

 
 
SUPPLEMENTAL OBSERVATIONS ARE A COLLECTION OF AUTOMATED INSTRUMENTS  
THAT ARE MAINTAINED BY A VARIETY OF FEDERAL AND STATE AGENCIES.  
CERTAIN ELEMENTS...SUCH AS HUMIDITY VALUES AND SUSTAINED WIND  
SPEEDS...MAY BE APPROXIMATED.  
 
 
 
CLICK HERE TO GO TO PREVIOUS BULLETINS.

The Nexlab TX Page Main Text Page

The Nexlab TX Page Main Text Page